Estación Meteorológica Peña el Pijo (Robertgarden) [ 12/14/19 08:39:12 CET ]

Fecha Hora Presion(HPa) Temp (°C) Humedad % Rocio (°C) Viento ( m/s) Direccion Lluvia 1Hora(mm) Lluvia 24H(mm) LLuvia Total(mm)
2019-Dec-06 01:09:25 1008.300 - - - - S     39.88
2019-Dec-06 02:10:12 1008.200 - - - - S     39.88
2019-Dec-06 03:10:22 1008.500 - - - - S     39.88
2019-Dec-06 04:09:49 1008.700 - - - - S     39.88
2019-Dec-06 05:09:37 1008.600 - - - - S     39.88
2019-Dec-06 06:09:30 1008.800 - - - - S     39.88
2019-Dec-06 07:09:10 1009.100 - - - - S     39.88
2019-Dec-06 08:08:51 1009.800 - - - - S     39.88
2019-Dec-06 09:09:43 1010.200 - - - - S     39.88
2019-Dec-06 10:09:26 1010.900 - - - - S     39.88
2019-Dec-06 11:09:26 1011.400 - - - - S     39.88
2019-Dec-06 12:09:22 1010.900 - - - - S     39.88
2019-Dec-06 13:09:22 1010.500 - - - - S     39.88
2019-Dec-06 14:09:27 1009.700 - - - - S     39.88
2019-Dec-06 15:09:45 1009.100 - - - - S     39.88
2019-Dec-06 16:09:25 1009.200 - - - - S     39.88
2019-Dec-06 17:09:06 1009.600 - - - - S     39.88
2019-Dec-06 18:09:12 1010.000 - - - - S     39.88
2019-Dec-06 19:08:45 1010.500 - - - - S     39.88
2019-Dec-06 20:09:14 1011.000 - - - - S     39.88
2019-Dec-06 21:09:18 1011.200 - - - - S     39.88
2019-Dec-06 22:09:12 1011.400 - - - - S     39.88
2019-Dec-06 23:09:11 1011.500 - - - - S     39.88

Temperatura Máxima:    Temperatura Mínima:
Presión Máxima:1011.500 Hpa    Presión Mínima:1008.200 Hpa


Volver